TimeCDT,TemperatureF,Dew PointF,Humidity,Sea Level PressureIn,VisibilityMPH,Wind Direction,Wind SpeedMPH,Gust SpeedMPH,PrecipitationIn,Events,Conditions,WindDirDegrees,DateUTC
12:53 AM,80.1,75.9,87,30.02,10.0,SW,10.4,-,N/A,,Clear,220,2013-07-23 05:53:00
1:53 AM,79.0,77.0,94,30.01,10.0,SW,6.9,-,N/A,,Clear,230,2013-07-23 06:53:00
2:53 AM,78.1,75.9,93,30.01,10.0,WSW,8.1,-,N/A,,Partly Cloudy,240,2013-07-23 07:53:00
3:53 AM,77.0,75.0,94,30.01,9.0,WSW,4.6,-,N/A,,Scattered Clouds,240,2013-07-23 08:53:00
4:53 AM,77.0,75.9,96,30.01,9.0,WSW,6.9,-,N/A,,Clear,240,2013-07-23 09:53:00
5:53 AM,77.0,75.9,96,30.02,8.0,WSW,5.8,-,N/A,,Clear,240,2013-07-23 10:53:00
6:53 AM,77.0,75.9,96,30.02,6.0,WSW,4.6,-,N/A,,Partly Cloudy,240,2013-07-23 11:53:00
7:53 AM,79.0,77.0,94,30.03,8.0,SW,8.1,-,N/A,,Partly Cloudy,230,2013-07-23 12:53:00
8:53 AM,81.0,77.0,88,30.06,10.0,WSW,8.1,-,N/A,,Scattered Clouds,250,2013-07-23 13:53:00
9:40 AM,84.2,77.0,79,30.06,10.0,West,11.5,16.1,N/A,,Mostly Cloudy,260,2013-07-23 14:40:00
9:53 AM,84.9,77.0,77,30.06,10.0,WSW,12.7,-,N/A,,Mostly Cloudy,240,2013-07-23 14:53:00
10:53 AM,87.1,75.0,67,30.07,10.0,WSW,13.8,-,N/A,,Mostly Cloudy,240,2013-07-23 15:53:00
11:53 AM,89.1,75.0,63,30.05,10.0,WSW,11.5,-,N/A,,Mostly Cloudy,250,2013-07-23 16:53:00
12:53 PM,89.1,73.9,61,30.03,10.0,West,15.0,-,N/A,,Scattered Clouds,260,2013-07-23 17:53:00
1:53 PM,91.0,72.0,53,30.01,10.0,WSW,15.0,20.7,N/A,,Scattered Clouds,250,2013-07-23 18:53:00
2:53 PM,91.0,73.9,57,29.98,10.0,SW,11.5,19.6,N/A,,Scattered Clouds,230,2013-07-23 19:53:00
3:53 PM,91.0,73.0,55,29.97,10.0,WSW,12.7,-,N/A,,Scattered Clouds,250,2013-07-23 20:53:00
4:53 PM,91.0,70.0,50,29.96,10.0,SW,11.5,-,N/A,,Clear,220,2013-07-23 21:53:00
5:53 PM,90.0,71.1,54,29.94,10.0,SW,12.7,-,N/A,,Clear,230,2013-07-23 22:53:00
6:53 PM,88.0,72.0,59,29.93,10.0,SW,10.4,-,N/A,,Partly Cloudy,220,2013-07-23 23:53:00
7:53 PM,86.0,73.0,65,29.93,10.0,SW,10.4,-,N/A,,Clear,220,2013-07-24 00:53:00
8:53 PM,84.0,73.9,72,29.92,10.0,SW,11.5,-,N/A,,Clear,220,2013-07-24 01:53:00
9:53 PM,82.0,73.9,76,29.96,10.0,SW,9.2,-,N/A,,Clear,220,2013-07-24 02:53:00
10:53 PM,81.0,75.0,82,29.97,10.0,SW,11.5,-,N/A,,Clear,230,2013-07-24 03:53:00
11:53 PM,80.1,75.0,85,29.98,10.0,WSW,8.1,-,N/A,,Clear,240,2013-07-24 04:53:00